SL-12 R/B(2), 36403

Orbit data source: Space-Track

SL-12 R/B(2), 36403 is space debris in MEO originally from a launch on Mon, 01 Mar 2010 UTC launched from the Tyuratam Missile And Space Complex (TTMTR). Debris objects in space refer to the collection of defunct objects orbiting the Earth. Examples of debris include non-operational satellites, rocket bodies, and fragments generated from explosions, collisions, or faulty payload assembly.

Loading next visibility...
Identifier
36403, 2010-007D
Orbit
MEO
Country
Flag of CISCIS
Related business
Manufacturer
RKKE
Mission
Spacecraft
Bus & Motor
BLOK DM2, 11D58M
Mass
2,440 kg wet, 2,440 kg dry
Launch date (UTC)
2010-03-01 (16 years ago)
Launch vehicle
Unknown
Launch site
Tyuratam Missile And Space Complex (TTMTR)
Object type
Payload
Rocket body
Debris
Shape & HBR
Cyl, 3.5 m
Radar Cross Section
26.008 m², Large (>1 m²)

Expand to show TLE details & history
Last TLE update: 2 days ago

TLE from 2 days ago
0 SL-12 R/B(2)
1 36403U 10007D   26032.65988518 -.00000063  00000-0  00000-0 0  9997
2 36403  65.4961 318.6687 0018881 189.3470 349.1923  2.13314883124029
Epoch: 2026-02-01T15:50Z
TLE epoch observation values (Epoch: 2026-02-01T15:50:14.079Z)
Latitude
1.33511°
Longitude
128.62931°
Altitude
19,065.985 km
Speed
3.962 km/s
True Right ascension
09h 12m 13s
True Declination
1° 19' 58"
Sunlit
Object was in daylight at epoch
Visualization orbit readout
Latitude
Unknown
Longitude
Unknown
Altitude
Unknown
Speed
Unknown
Apparent Right ascension
Unknown
Apparent Declination
Unknown
Sunlit
N/A
Visualization observer readout
Local Sidereal Time
11:15:06
Azimuth
Unknown
Elevation
Unknown
Doppler factor
Unknown
Orbital elements
Apogee altitude
19,160.64 km
Perigee altitude
19,064.382 km
Semi-major axis
25,490.648 km
Eccentricity
0.00189
Inclination
65.4961°
RAAN
318.6687°
Arg. of periapsis
189.347°
True anomaly
349.15164°
Mean anomaly
349.1923°
Eccentric anomaly
349.17198°
Mean motion
0.5333 °/min
Orbital period
675.04 mins
BSTAR
0
Loading maneuver chart data...
Computing Atmospheric mass density...
Loading historical data...
Loading historical data...
Loading historical data...
Loading historical data...
Loading historical data...
Loading historical data...
Loading historical data...

Documentation

Showing up to 5 results
|